Find Starlink 34480

NORAD ID: 64427 Int'l Des: 2025-129 Owner: SPXS Country: US Constellation: starlink operational
LEOCIRCULAR

現在のビュー

3D地球を読み込み中...

About Starlink 34480

Starlink 34480 (NORAD 64427) is a starlink constellation satellite (v2 mini) launched Jun 17, 2025 by SPXS of US. It operates in LEO, CIRCULAR orbit with a mass of 575.00 kg.

次回通過

Passes for default location (London). Set your location on the main map for personalized predictions.

高度履歴

Loading altitude history...

軌道要素

1 64427U 25129R 26263.53839698 .00007932 00000-0 28001-3 0 9997
2 64427 69.9999 300.7798 0003224 269.7945 90.2861 15.29586283 70533
Epoch: Sep 20, 2026 • Age: 16 hours

現在のステータス

高度 485.5 km
遠地点 / 近地点 N/A
速度 7.62 km/s
衛星直下点 -26.91°S, 138.97°W
打ち上げ日 Jun 17, 2025
運用期間 1.2 years
タイプ internet

技術仕様

分類 Payload
質量 575.00 kg
乾燥質量 530.00 kg
長さ 0.30 m
スパン 29.00 m
形状 ? Box + pan
製造者 SPXS
バスタイプ Starlink V2MO
フェーズステータス In Orbit
所有者/国 SPXS/US

Most Searched